PROGRESS-MS 34

Last updated on Wed Aug 26 2026 00:02:34 GMT+0000 (Coordinated Universal Time)

1 68837U 26093A 26237.53157716 .00007217 00000+0 13603-3 0 9999 2 68837 51.6331 316.8722 0007738 83.0953 277.0916 15.49622505583259
UTC large
Height (km)
Speed (km/s)
/
Latitude / Longitude
Inclination (degrees)
Orbital Period (minutes)
Azimuth
Elevation
Range (km)
Doppler Factor

Next 0 passes for location: London (51.5072 / 0.1276)

No passes found over London.
PROGRESS-MS 34